This is the latest recevied weather packets stored in our database for station/object EA4URC-13. If no packets are shown the sender has not sent any weather packets the latest 10 day(s).
| Time | Temp. | Humidity | Pressure | Rain* | Wind** | Luminosity | Snow |
|---|---|---|---|---|---|---|---|
| 1788553401 | 26.11° C | 29% | 1017.3 hPa | - | - | - | - |
| 1788552501 | 26.67° C | 26% | 1017.1 hPa | - | - | - | - |
| 1788551601 | 26.67° C | 25% | 1016.9 hPa | - | - | - | - |
| 1788550701 | 30° C | 18% | 1015.4 hPa | - | - | - | - |
| 1788549801 | 30° C | 17% | 1015.2 hPa | - | - | - | - |
| 1788548901 | 29.44° C | 18% | 1015 hPa | - | - | - | - |
| 1788548044 | 29.44° C | 18% | 1014.8 hPa | - | - | - | - |
| 1788548001 | 29.44° C | 18% | 1014.8 hPa | - | - | - | - |
| 1788547101 | 28.89° C | 18% | 1014.9 hPa | - | - | - | - |
| 1788546196 | 29.44° C | 18% | 1014.5 hPa | - | - | - | - |
| 1788545296 | 30.56° C | 17% | 1014.1 hPa | - | - | - | - |
| 1788544396 | 30.56° C | 17% | 1013.8 hPa | - | - | - | - |
| 1788543496 | 31.11° C | 17% | 1013.6 hPa | - | - | - | - |
| 1788542596 | 31.67° C | 17% | 1013.5 hPa | - | - | - | - |
| 1788541696 | 31.67° C | 16% | 1013.1 hPa | - | - | - | - |
| 1788540796 | 32.22° C | 16% | 1012.9 hPa | - | - | - | - |
| 1788539896 | 32.78° C | 16% | 1012.8 hPa | - | - | - | - |
| 1788538996 | 33.33° C | 15% | 1012.6 hPa | - | - | - | - |
| 1788538096 | 33.33° C | 15% | 1012.4 hPa | - | - | - | - |
| 1788537196 | 33.33° C | 16% | 1012.5 hPa | - | - | - | - |
| 1788536296 | 33.89° C | 15% | 1012.4 hPa | - | - | - | - |
| 1788535396 | 33.33° C | 15% | 1012.6 hPa | - | - | - | - |
| 1788534496 | 34.44° C | 15% | 1012.3 hPa | - | - | - | - |
| 1788533596 | 34.44° C | 14% | 1012.3 hPa | - | - | - | - |
| 1788532696 | 33.89° C | 15% | 1012.8 hPa | - | - | - | - |
* Rain since midnight (hover to see other rain measurements)
** Current wind speed in m/s (hover to see current wind gust speed)